• In Hungary
  • List of Countries
  • For 7 days
  • Water Temperature
  • Satellite Maps
  • Weather Map
  • News
  • Weather Widgets
  • user-avatar
    Login

    Hourly Weather Austin

    Today, 18 October, Wednesday

    Time Temperature Precipitation Wind Pressure Humidity
    00:00 +15°C° 0 mm 1 mps 748 mmHg 58%
    01:00 +14°C° 0 mm 1 mps 748 mmHg 59%
    02:00 +14°C° 0 mm 1 mps 748 mmHg 60%
    03:00 +14°C° 0 mm 1 mps 748 mmHg 61%
    04:00 +13°C° 0 mm 1 mps 748 mmHg 62%
    05:00 +13°C° 0 mm 1 mps 748 mmHg 63%
    06:00 +15°C° 0 mm 1 mps 748 mmHg 59%
    07:00 +18°C° 0 mm 1 mps 749 mmHg 54%
    08:00 +19°C° 0 mm 2 mps 749 mmHg 49%
    09:00 +21°C° 0 mm 2 mps 749 mmHg 44%
    10:00 +24°C° 0 mm 2 mps 749 mmHg 39%
    11:00 +26°C° 0 mm 3 mps 748 mmHg 34%
    12:00 +26°C° 0 mm 3 mps 748 mmHg 33%
    13:00 +27°C° 0 mm 3 mps 747 mmHg 32%
    14:00 +28°C° 0 mm 3 mps 746 mmHg 31%
    15:00 +26°C° 0 mm 3 mps 746 mmHg 36%
    16:00 +24°C° 0 mm 3 mps 746 mmHg 41%
    17:00 +21°C° 0 mm 2 mps 746 mmHg 47%
    18:00 +21°C° 0 mm 2 mps 746 mmHg 49%
    19:00 +20°C° 0 mm 2 mps 747 mmHg 52%
    20:00 +19°C° 0 mm 2 mps 747 mmHg 54%
    21:00 +19°C° 0 mm 2 mps 747 mmHg 58%
    22:00 +19°C° 0 mm 2 mps 747 mmHg 62%
    23:00 +19°C° 0 mm 2 mps 747 mmHg 66%

    Tomorrow, 19 October, Thursday

    Time Temperature Precipitation Wind Pressure Humidity
    00:00 +18°C° 0 mm 2 mps 747 mmHg 72%
    01:00 +18°C° 0 mm 2 mps 747 mmHg 77%
    02:00 +18°C° 0 mm 2 mps 747 mmHg 82%
    03:00 +18°C° 0 mm 1 mps 747 mmHg 85%
    04:00 +18°C° 0 mm 1 mps 747 mmHg 88%
    05:00 +18°C° 0 mm 1 mps 747 mmHg 91%
    06:00 +18°C° 0 mm 2 mps 747 mmHg 87%
    07:00 +20°C° 0 mm 2 mps 748 mmHg 84%
    08:00 +22°C° 0 mm 3 mps 748 mmHg 80%
    09:00 +24°C° 0 mm 3 mps 748 mmHg 77%
    10:00 +25°C° 0 mm 3 mps 748 mmHg 73%
    11:00 +26°C° 0 mm 3 mps 747 mmHg 70%
    12:00 +26°C° 0 mm 3 mps 747 mmHg 68%
    13:00 +26°C° 0 mm 3 mps 746 mmHg 67%
    14:00 +27°C° 0 mm 3 mps 746 mmHg 66%
    15:00 +26°C° 0 mm 3 mps 746 mmHg 68%
    16:00 +25°C° 0 mm 3 mps 746 mmHg 71%
    17:00 +25°C° 0 mm 3 mps 746 mmHg 73%
    18:00 +24°C° 0 mm 3 mps 746 mmHg 77%
    19:00 +24°C° 0 mm 3 mps 746 mmHg 80%
    20:00 +22°C° 0 mm 4 mps 746 mmHg 83%
    21:00 +21°C° 0 mm 4 mps 746 mmHg 84%
    22:00 +21°C° 0 mm 4 mps 746 mmHg 85%
    23:00 +20°C° 0 mm 3 mps 746 mmHg 86%

    Day after tomorrow, 20 October, Friday

    Time Temperature Precipitation Wind Pressure Humidity
    00:00 +20°C° 0 mm 3 mps 746 mmHg 88%
    01:00 +20°C° 0 mm 3 mps 746 mmHg 91%
    02:00 +19°C° 0 mm 2 mps 745 mmHg 94%
    03:00 +19°C° 0 mm 2 mps 745 mmHg 94%
    04:00 +20°C° 0 mm 2 mps 745 mmHg 95%
    05:00 +20°C° 0 mm 3 mps 745 mmHg 95%
    06:00 +21°C° 0 mm 3 mps 746 mmHg 91%
    07:00 +22°C° 0 mm 4 mps 746 mmHg 88%
    08:00 +23°C° 0 mm 4 mps 746 mmHg 84%
    09:00 +25°C° 0.1 mm 5 mps 746 mmHg 80%
    10:00 +26°C° 0.1 mm 5 mps 746 mmHg 75%
    11:00 +28°C° 0.1 mm 5 mps 745 mmHg 71%
    12:00 +28°C° 0.5 mm 5 mps 745 mmHg 69%
    13:00 +28°C° 0.5 mm 4 mps 744 mmHg 68%
    14:00 +29°C° 0.5 mm 4 mps 743 mmHg 67%
    15:00 +28°C° 0.1 mm 4 mps 743 mmHg 71%
    16:00 +27°C° 0.1 mm 3 mps 743 mmHg 75%
    17:00 +26°C° 0.1 mm 3 mps 743 mmHg 80%
    18:00 +25°C° 0 mm 3 mps 743 mmHg 83%
    19:00 +25°C° 0 mm 3 mps 744 mmHg 86%
    20:00 +24°C° 0 mm 3 mps 744 mmHg 89%
    21:00 +24°C° 0 mm 3 mps 744 mmHg 91%
    22:00 +22°C° 0 mm 3 mps 744 mmHg 93%
    23:00 +22°C° 0 mm 3 mps 744 mmHg 95%

    21 October, Saturday

    Time Temperature Precipitation Wind Pressure Humidity
    00:00 +22°C° 0 mm 3 mps 744 mmHg 96%
    01:00 +22°C° 0 mm 3 mps 744 mmHg 97%
    02:00 +22°C° 0 mm 3 mps 743 mmHg 98%
    03:00 +22°C° 0 mm 3 mps 743 mmHg 97%
    04:00 +22°C° 0 mm 3 mps 743 mmHg 97%
    05:00 +22°C° 0 mm 3 mps 744 mmHg 97%
    06:00 +24°C° 0 mm 3 mps 744 mmHg 93%
    07:00 +25°C° 0 mm 4 mps 744 mmHg 89%
    08:00 +26°C° 0 mm 4 mps 745 mmHg 85%
    09:00 +27°C° 0.1 mm 4 mps 745 mmHg 78%
    10:00 +29°C° 0.1 mm 4 mps 745 mmHg 71%
    11:00 +30°C° 0.1 mm 4 mps 744 mmHg 63%
    12:00 +32°C° 0 mm 4 mps 744 mmHg 61%
    13:00 +32°C° 0 mm 4 mps 743 mmHg 58%
    14:00 +33°C° 0 mm 4 mps 743 mmHg 56%
    15:00 +30°C° 0 mm 4 mps 743 mmHg 61%
    16:00 +29°C° 0 mm 3 mps 743 mmHg 66%
    17:00 +28°C° 0 mm 3 mps 743 mmHg 71%
    18:00 +27°C° 0 mm 3 mps 743 mmHg 75%
    19:00 +26°C° 0 mm 3 mps 744 mmHg 79%
    20:00 +26°C° 0 mm 3 mps 744 mmHg 82%
    21:00 +25°C° 0 mm 3 mps 744 mmHg 86%
    22:00 +25°C° 0 mm 3 mps 744 mmHg 89%
    23:00 +25°C° 0 mm 3 mps 744 mmHg 92%

    22 October, Sunday

    Time Temperature Precipitation Wind Pressure Humidity
    00:00 +24°C° 0 mm 3 mps 744 mmHg 93%
    01:00 +24°C° 0 mm 2 mps 744 mmHg 95%
    02:00 +24°C° 0 mm 2 mps 744 mmHg 96%
    03:00 +24°C° 1.5 mm 2 mps 744 mmHg 95%
    04:00 +23°C° 1.5 mm 2 mps 745 mmHg 95%
    05:00 +23°C° 1.5 mm 2 mps 745 mmHg 94%
    06:00 +24°C° 0.8 mm 2 mps 746 mmHg 88%
    07:00 +25°C° 0.8 mm 2 mps 746 mmHg 82%
    08:00 +26°C° 0.8 mm 2 mps 747 mmHg 76%
    09:00 +27°C° 0 mm 3 mps 747 mmHg 72%
    10:00 +28°C° 0 mm 4 mps 747 mmHg 68%
    11:00 +28°C° 0 mm 5 mps 747 mmHg 64%
    12:00 +28°C° 0.7 mm 5 mps 747 mmHg 66%
    13:00 +28°C° 0.7 mm 5 mps 746 mmHg 67%
    14:00 +27°C° 0.7 mm 5 mps 746 mmHg 69%
    15:00 +26°C° 0.5 mm 5 mps 746 mmHg 72%
    16:00 +26°C° 0.5 mm 4 mps 747 mmHg 75%
    17:00 +25°C° 0.5 mm 4 mps 747 mmHg 78%
    18:00 +23°C° 0.1 mm 4 mps 747 mmHg 78%
    19:00 +23°C° 0.1 mm 4 mps 748 mmHg 78%
    20:00 +22°C° 0.1 mm 4 mps 748 mmHg 78%
    21:00 +21°C° 0 mm 4 mps 748 mmHg 74%
    22:00 +20°C° 0 mm 4 mps 748 mmHg 71%
    23:00 +20°C° 0 mm 4 mps 748 mmHg 68%

    23 October, Monday

    Time Temperature Precipitation Wind Pressure Humidity
    00:00 +19°C° 0 mm 4 mps 748 mmHg 65%
    01:00 +18°C° 0 mm 4 mps 748 mmHg 62%
    02:00 +18°C° 0 mm 4 mps 748 mmHg 59%
    03:00 +17°C° 0 mm 4 mps 748 mmHg 58%
    04:00 +15°C° 0 mm 4 mps 749 mmHg 57%
    05:00 +15°C° 0 mm 4 mps 749 mmHg 56%
    06:00 +17°C° 0 mm 4 mps 749 mmHg 54%
    07:00 +18°C° 0 mm 4 mps 749 mmHg 51%
    08:00 +19°C° 0 mm 4 mps 750 mmHg 49%
    09:00 +21°C° 0 mm 4 mps 749 mmHg 44%
    10:00 +22°C° 0 mm 4 mps 749 mmHg 38%
    11:00 +25°C° 0 mm 4 mps 749 mmHg 33%
    12:00 +26°C° 0 mm 4 mps 748 mmHg 31%
    13:00 +27°C° 0 mm 4 mps 747 mmHg 29%
    14:00 +27°C° 0 mm 4 mps 747 mmHg 28%
    15:00 +26°C° 0 mm 4 mps 747 mmHg 32%
    16:00 +24°C° 0 mm 3 mps 747 mmHg 36%
    17:00 +21°C° 0 mm 3 mps 747 mmHg 40%
    18:00 +20°C° 0 mm 2 mps 747 mmHg 41%
    19:00 +19°C° 0 mm 2 mps 748 mmHg 42%
    20:00 +18°C° 0 mm 2 mps 748 mmHg 43%
    21:00 +18°C° 0 mm 2 mps 748 mmHg 44%
    22:00 +18°C° 0 mm 2 mps 748 mmHg 45%
    23:00 +17°C° 0 mm 2 mps 748 mmHg 45%
    Show more